www.pogodaiklimat.ru

Погода и климат >> Архив погоды >> Китай >> Внутренняя Монголия >> Линьси


ПОГОДА в Линьси

  • Прогноз погоды в Линьси
  • Монитор погоды в Линьси

АРХИВ ПОГОДЫ в Линьси

Время (UTC), дата Ветер
(напр.,м/с)
 
Видим.   Явления Облачность Т
(С)
Тd
(С)
f
(%)
Тe
(С)
Тes
(С)
Комфортность P
(гПа)
Po
(гПа)
Тmin
(С)
Tmax
(С)
R
(мм)
R24
(мм)
S
(см)
09 18.06 ЮВ 3 30 км 10/10 1000 м
[]
+22.2 +12.2 53 +25 +25 комфорт 1006.5 917.5
12 18.06 штиль 0 29 км {дождь} 9/9 1000 м
[]
+19.2 +15.1 77 +21 +21 комфорт 1007.4 917.5 0.0
18 18.06 С 1 19 км ?/? +13.7 +11.0 84 +14 +14 1007.9 915.5 +23.3
21 18.06 С 2 13 км н/о +11.8 +10.2 90 +11 +11 1008.6 916.3
00 19.06 Ю 1 30 км ясно +20.2 +12.2 60 +23 +32 комфорт 1007.6 917.9
03 19.06 Ю 2 30 км 1/1 1000 м
[]
+26.8 +5.7 26 +26 +43 жарко 1006.1 918.5
06 19.06 Ю 4 30 км 3/3 1000 м
[]
+29.0 +5.8 23 +28 +36 жарко 1005.0 918.1 +11.4
09 19.06 С 2 30 км 1/1 1000 м
[]
+29.9 +2.2 17 +28 +32 жарко 1003.3 916.7
12 19.06 С 1 30 км 5/5 1000 м
[]
+24.2 +8.6 37 +25 +25 комфорт 1003.3 915.2
18 19.06 С 2 30 км ?/? +16.3 +9.0 62 +16 +16 1002.9 912.5 +30.4
21 19.06 С 1 30 км н/о +17.2 +9.4 60 +18 +18 1002.5 912.4
00 20.06 С 5 30 км 3/3 1000 м
[]
+26.0 +6.1 28 +26 +28 жарко 1003.8 916.1
03 20.06 В 3 26 км 4/4 1000 м
[]
+28.4 +9.2 30 +28 +38 жарко 1004.0 917.0
06 20.06 С 4 30 км 4/4 1000 м
[]
+30.6 +5.1 20 +29 +35 жарко 1003.2 916.8 +15.5
09 20.06 В 7 30 км 4/4 1000 м
[]
+26.0 +8.5 33 +26 +27 жарко 1004.3 916.6
12 20.06 В 4 30 км 3/3 1000 м
[]
+22.2 +8.7 42 +24 +24 комфорт 1006.4 915.8
18 20.06 С 1 30 км ?/? +14.4 +10.0 75 +15 +15 1009.3 917.8 +31.0
21 20.06 штиль 0 30 км н/о +13.5 +9.2 75 +13 +13 1010.8 918.8
00 21.06 ЮВ 1 30 км ясно +20.2 +9.5 50 +23 +32 комфорт 1010.9 920.9
03 21.06 ЮВ 2 30 км ясно +23.8 +10.5 43 +25 +43 комфорт 1010.8 921.9
06 21.06 В 4 30 км 4/4 1000 м
[]
+27.0 +7.0 28 +27 +33 жарко 1009.8 921.9 +13.4
09 21.06 ЮВ 4 30 км 3/3 1000 м
[]
+26.9 +7.4 29 +27 +29 жарко 1009.5 921.6
12 21.06 В 2 30 км ясно +23.5 +8.8 39 +24 +24 комфорт 1010.0 921.1
18 21.06 С 2 30 км ?/? +13.7 +9.2 74 +13 +13 1010.6 918.7 +27.6
21 21.06 СЗ 2 30 км н/о +13.5 +8.6 72 +13 +13 1010.7 918.8
00 22.06 Ю 1 30 км ясно +23.5 +10.9 45 +25 +34 комфорт 1009.4 920.5
03 22.06 С 4 30 км 3/3 1000 м
[]
+29.1 +4.6 21 +27 +36 жарко 1008.7 921.5
06 22.06 С 4 30 км 5/5 1000 м
[]
+30.8 +3.8 18 +29 +34 жарко 1007.7 921.0 +12.2
09 22.06 В 2 30 км 4/4 1000 м
[]
+30.5 +4.3 19 +28 +31 жарко 1007.4 920.7
12 22.06 З 1 30 км 3/3 1000 м
[]
+23.8 +9.4 40 +25 +25 комфорт 1007.2 918.6
18 22.06 С 3 30 км ?/? +16.8 +6.9 52 +17 +17 1008.5 917.8 +31.0
21 22.06 С 3 30 км н/о +15.5 +7.3 58 +15 +15 1009.5 918.3
00 23.06 Ю 1 30 км ясно +22.8 +9.6 43 +24 +33 комфорт 1009.0 920.0
03 23.06 В 2 30 км 1/1 1000 м
[]
+27.8 +9.1 31 +28 +44 жарко 1008.1 920.6
06 23.06 ЮВ 4 30 км 5/5 1000 м
[]
+32.5 +4.3 17 +30 +36 жарко 1005.6 919.6 +15.3
09 23.06 Ю 3 30 км 8/8 1000 м
[]
+32.4 +5.1 18 +30 +31 жарко 1004.6 918.6
12 23.06 В 1 24 км 8/8 1000 м
[]
+26.8 +7.8 30 +27 +27 жарко 1004.5 917.0
18 23.06 З 1 30 км ?/? +19.1 +6.9 45 +21 +21 комфорт 1004.6 914.7 +33.0
21 23.06 ЮЗ 1 30 км н/о +16.8 +9.2 61 +18 +18 1005.6 915.1
00 24.06 штиль 0 30 км 4/4 1000 м
[]
+26.2 +9.5 35 +27 +33 жарко 1005.0 917.3
03 24.06 Ю 2 30 км 6/6 1000 м
[]
+30.7 +10.1 28 +30 +38 жарко 1004.5 918.1
06 24.06 Ю 2 30 км 9/9 1000 м
[]
+32.6 +8.8 23 +31 +33 жарко 1002.2 916.5 +15.8
09 24.06 В 1 30 км {дождь} 9/9 1000 м
[]
+28.7 +9.4 30 +29 +29 жарко 1002.5 915.7
12 24.06 С 3 30 км в посл. час дождь 9/9 1000 м
[]
+20.8 +15.4 71 +24 +24 комфорт 1004.8 915.6 2
18 24.06 С 1 25 км ?/? +19.2 +15.5 79 +22 +22 комфорт 1003.6 914.0 +33.5
21 24.06 ЮВ 1 17 км в посл. час дождь н/о +19.1 +16.1 83 +22 +22 комфорт 1004.0 914.3
00 25.06 Ю 1 22 км в посл. час дождь 9/9 1000 м
[]
+20.9 +15.7 72 +25 +26 комфорт 1004.9 915.7 0.4
03 25.06 Ю 6 22 км {дождь} 9/9 1000 м
[]
+26.5 +12.9 43 +28 +29 жарко 1002.9 915.4
06 25.06 ЮЗ 4 25 км {дождь} 9/9 1000 м
[]
+24.9 +12.8 47 +27 +28 жарко 1002.8 914.9 +19.0 0.0

 

Местоположение метеостанции Линьси (Внутренняя Монголия, Китай): широта 43.60 долгота 118.06 высота над уровнем моря 800 м.

В архиве по умолчанию представлена погода в Линьси за последнюю неделю. Архивные данные за месяц целиком и за предыдущие месяцы, начиная с января 2011 года, Вы можете получить, выбрав интересующий диапазон дат из раскрывающегося списка и нажав кнопку "Ввод!".


*Определитесь, кто Вы:
робот инопланетянин человек

Внимание! Время в таблицах - всемирное. Для получения местного времени необходимо прибавить поправку, которая равна 8 ч.

Смотрите также архив погоды в соседних городах и на ближайших метеорологических станциях:

Погода в Си-Уджимчин-Ци (Внутренняя Монголия, Китай) (115 км)
Погода в Байрин-Цзоци (Внутренняя Монголия, Китай) (116 км)
Погода в Шилин-Хото (Внутренняя Монголия, Китай) (161 км)
Погода в Чифэне (Внутренняя Монголия, Китай) (165 км)
Погода в Вэйчане (Хэбэй, Китай) (187 км)
Погода в Долуне (Внутренняя Монголия, Китай) (205 км)
Погода в Дун-Уджимчин-Ци (Внутренняя Монголия, Китай) (231 км)
Погода в Джаруд-Ци (Внутренняя Монголия, Китай) (251 км)
Погода в Баянчагане (Внутренняя Монголия, Китай) (254 км)
Погода в Дабейва (Внутренняя Монголия, Китай) (257 км)

Пояснения к столбцам:

Ветер - указаны скорость ветра в м/с - средняя за 10 мин, порывы в срок и между сроками (в фигурных скобках) и направление, откуда дует ветер: С - северный, СВ - северо-восточный, В - восточный, ЮВ - юго-восточный, Ю - южный, ЮЗ - юго-западный, З - западный, СЗ - северо-западный.
Видимость - горизонтальная дальность видимости в метрах или километрах. При видимости от 1 до 10 км при отсутствии осадков обычно наблюдается дымка, при ухудшении видимости до 1 км и менее - туман. В сухую погоду видимость может ухудшаться дымом, пылью или мглою.
Явления - указаны атмосферные явления, наблюдавшиеся в срок или в последний час перед сроком; фигурными скобками обозначены явления, наблюдавшиеся между сроками (за 1-3 часа до срока); квадратными скобками обозначены град или гололедные отложения с указанием их диаметра в мм.
Облачность - указаны через наклонную черту общая и нижняя облачность в баллах и высота нижней границы облаков в метрах; квадратными скобками обозначены формы облаков: Ci - перистые, Cs - перисто-слоистые, Cc - перисто-кучевые, Ac - высококучевые, As - высокослоистые, Sc - слоисто-кучевые, Ns - слоисто-дождевые, Cu - кучевые, Cb - кучево-дождевые. Подробнее классификацию облаков см. в Атласе облаков (PDF).
T - Температура воздуха - температура, измеренная на высоте 2 м над землей.
Td - Температура точки росы - температура, при понижении до которой содержащийся в воздухе водяной пар достигнет насыщения.
f - Относительная влажность воздуха - влажноcть воздуха, измеренная на высоте 2 м над землей.
Te - Эффективная температура - температура, которую ощущает одетый по сезону человек в тени. Характеристика душности погоды. При расчете учитывается влияние влажности воздуха и скорости ветра на теплоощущения человека.
Tes - Эффективная температура на солнце - температура, которую ощущает человек, с поправкой на солнечный нагрев. Характеристика знойности погоды. Зависит от высоты солнца над горизонтом, облачности и скорости ветра. Ночью, в пасмурную погоду, а также при ветре 12 м/с и более поправка равна нулю.
P - Атмосферное давление - приведенное к уровню моря атмосферное давление.
Po - Атмосферное давление - измеренное на уровне метеостанции атмосферное давление.
Tmin - Минимальная температура - минимум температуры воздуха на высоте 2 м над землей.
Tmax - Максимальная температура - максимум температуры воздуха на высоте 2 м над землей.
R - Количество осадков - Количество выпавших осадков за период времени, мм. При наведении курсора мыши на число - период времени, за который выпало указанное количество осадков.
R24 - Количество осадков - Количество выпавших осадков за 24 часа, мм.
S - Снежный покров - Высота снежного покрова, см. При наведении курсора мыши на число - состояние снежного покрова и степень покрытия местности в баллах.